Regional Weather Roundup
Issued by NWS

Home | Current Version | Previous Version | Graphics & Text | Print | Product List | Glossary On
Versions: 1 2 3 4 5 6 7 8 9 10 11 12 13 14 15 16 17 18 19 20 21 22 23 24 25 26 27 28 29 30 31 32 33 34 35 36 37 38 39 40 41 42 43 44 45 46 47
000
ASUS45 KBOI 222110
RWRID

IDAHO REGIONAL WEATHER ROUNDUP
NATIONAL WEATHER SERVICE BOISE ID
300 PM MDT SAT APR 22 2017

NOTE: "FAIR" INDICATES FEW OR NO CLOUDS BELOW 12000 FEET
WITH NO SIGNIFICANT WEATHER AND/OR OBSTRUCTIONS TO VISIBILITY

IDZ012-014-222200-
SOUTHWEST IDAHO


CITY           SKY/WX    TMP DP  RH WIND       PRES   REMARKS
BOISE          PTSUNNY   67  27  22 SE24G30   29.94F
CALDWELL       PTSUNNY   68  34  28 E29G37    29.91F
MOUNTAIN HOME  PTSUNNY   67  30  24 E26G38    29.95F
$$

IDZ016-017-222200-
SOUTHCENTRAL IDAHO


CITY           SKY/WX    TMP DP  RH WIND       PRES   REMARKS
BURLEY         MOSUNNY   62  27  26 E10       30.05F
JEROME         MOSUNNY   63  24  22 E14G20    30.05F
TWIN FALLS     MOSUNNY   63  30  28 SE15      30.03F
$$

IDZ019>023-222200-
SOUTHEAST IDAHO


CITY           SKY/WX    TMP DP  RH WIND       PRES   REMARKS
IDAHO FALLS    MOSUNNY   57  32  38 SW13G18   30.13F
POCATELLO      MOSUNNY   60  32  34 S15G21    30.11F
REXBURG        SUNNY     55  31  39 SW14G21   30.13F
$$

IDZ006-010-011-018-031-032-222200-
CENTRAL IDAHO MOUNTAINS


CITY           SKY/WX    TMP DP  RH WIND       PRES   REMARKS
MCCALL         CLOUDY    56  25  30 S14       29.97
HAILEY         MOSUNNY   54  28  37 SE8G18    30.11F
STANLEY          N/A     49  18  29 SE18G28   30.05F
SALMON         CLOUDY    63  27  25 SW22G31   29.95F
CHALLIS        MOSUNNY   59  21  23 SE20G31   30.00F
$$

IDZ002-004-006-007-026-222200-
NORTHERN IDAHO


CITY           SKY/WX    TMP DP  RH WIND       PRES   REMARKS
LEWISTON       PTSUNNY   72  33  24 S5        29.83F
LOWELL           N/A     73  32  22 S5        29.83F
COEUR D`ALENE  SUNNY     65  30  27 S9G18     29.87F
MULLAN PASS    SUNNY     49  21  33 VRB3      29.94F
$$



USA.gov is the U.S. government's official web portal to all federal, state and local government web resources and services.